{"data":{"norad_id":44752,"epoch":"2026-09-19T17:01:08.533056Z","epoch_age_seconds":82560,"freshness":"FRESH","line1":"1 44752U 19074AR  26262.70912654  .00032565  00000+0  85140-3 0  9996","line2":"2 44752  53.0662 316.1604 0002816  57.0388 303.0885 15.38487411379148","mean_motion":15.38487411,"eccentricity":0.0002816,"inclination_deg":53.0662,"raan_deg":316.1604,"arg_perigee_deg":57.0388,"mean_anomaly_deg":303.0885,"bstar":0.0008514,"rev_number":37914,"period_min":93.598425941231,"perigee_km":448.65853097561,"apogee_km":452.50446523374,"semimajor_km":6828.7184981047,"source":"CELESTRAK","updated_at":"2026-09-20T09:00:38.219932Z"}}